Location: Buch
(49.7331°N, 12.1098°E)
Time: 15:17:22
(UTC+00:00)

Thor Agena Rocket - Pass Details

Date: 12 May 2021
Orbit: 760 x 807 km, 99.0° (Epoch: 18 June)

Event Time Altitude Azimuth Distance (km) Brightness Sun altitude
Rises 23:32:45 0° 13° (NNE) 3,305 8.3 -21.7°
Reaches altitude 10° 23:35:05 10° 10° (N) 2,377 7.2 -21.6°
Maximum altitude 23:40:18 66° 290° (WNW) 878 3.8 -21.5°
Enters shadow 23:42:04 41° 224° (SW) 1,160 4.0 -21.5°
